WS6A-13 Weather Reports


time (UTC)temp
C
wind
direction
speed
KPH
gust
KPH
rain 1hr
cm
rain 24hr
cm
rain mn
cm
humidity
%
barometer
mb
20260902014503 25 123 0.0 0.0 0.00 0.00 0.00 85 1014.3
20260902013004 25 121 0.0 0.0 0.00 0.00 0.00 84 1014.3
20260902011504 26 121 0.0 0.0 0.00 0.00 0.00 85 1014.1
20260902004504 26 121 0.0 0.0 0.00 0.00 0.00 83 1013.9
20260902003004 27 121 0.0 0.0 0.00 0.00 0.00 80 1014.0
20260901233004 29 121 0.0 0.0 0.00 0.00 0.00 75 1014.2
20260901231504 30 121 0.0 0.0 0.00 0.00 0.00 74 1014.2
20260901230004 30 121 0.0 0.0 0.00 0.00 0.00 73 1014.2
20260901223005 31 121 0.0 0.0 0.00 0.00 0.00 69 1014.2
20260901221504 31 147 0.0 3.2 0.00 0.00 0.00 67 1014.2
20260901220004 32 72 0.0 3.2 0.00 0.00 0.00 67 1014.2
20260901214504 32 55 0.0 0.0 0.00 0.00 0.00 66 1014.1
20260901211504 32 79 0.0 3.2 0.00 0.00 0.00 64 1014.1
20260901204504 33 60 1.6 4.8 0.00 0.00 0.00 60 1014.2
20260901203004 33 252 0.0 3.2 0.00 0.00 0.00 63 1014.2
20260901201504 33 269 0.0 4.8 0.00 0.00 0.00 62 1014.2
20260901200006 34 262 0.0 4.8 0.00 0.00 0.00 62 1014.2
20260901194503 33 226 3.2 4.8 0.00 0.00 0.00 61 1014.3
20260901193004 34 263 1.6 4.8 0.00 0.00 0.00 62 1014.5
20260901191504 33 238 1.6 4.8 0.00 0.00 0.00 60 1014.6
20260901190005 33 263 0.0 4.8 0.00 0.00 0.00 63 1014.9
20260901184504 33 78 1.6 3.2 0.00 0.00 0.00 65 1015.0
20260901183005 33 217 1.6 3.2 0.00 0.00 0.00 65 1015.1
20260901180004 33 245 0.0 4.8 0.00 0.00 0.00 69 1015.3
20260901174504 32 259 0.0 3.2 0.00 0.00 0.00 66 1015.5
20260901173004 32 249 0.0 4.8 0.00 0.00 0.00 69 1015.6
20260901171504 32 252 0.0 1.6 0.00 0.00 0.00 69 1015.7
20260901164504 31 78 0.0 3.2 0.00 0.00 0.00 69 1015.9
20260901163004 31 247 0.0 4.8 0.00 0.00 0.00 70 1016.0
20260901161504 31 269 0.0 4.8 0.00 0.00 0.00 71 1015.9
20260901160004 30 256 0.0 4.8 0.00 0.00 0.00 72 1016.1
20260901153004 30 250 0.0 3.2 0.00 0.00 0.00 75 1016.1
20260901151503 29 218 0.0 4.8 0.00 0.00 0.00 77 1016.1
20260901141504 27 85 0.0 3.2 0.00 0.00 0.00 81 1016.4
20260901140004 26 83 0.0 3.2 0.00 0.00 0.00 83 1016.4
20260901134504 25 78 0.0 0.0 0.00 0.00 0.00 86 1016.4
20260901133004 25 78 0.0 0.0 0.00 0.00 0.00 88 1016.4
20260901131503 24 78 0.0 0.0 0.00 0.00 0.00 91 1016.4
20260901130004 23 78 0.0 0.0 0.00 0.00 0.00 91 1016.5
20260901124505 23 78 0.0 0.0 0.00 0.00 0.00 92 1016.5
20260901123004 22 78 0.0 0.0 0.00 0.00 0.00 94 1016.4
20260901120004 22 78 0.0 0.0 0.00 0.00 0.00 94 1016.3
20260901114503 22 78 0.0 0.0 0.00 0.00 0.00 94 1016.2
20260901113004 21 78 0.0 0.0 0.00 0.00 0.00 94 1015.8
20260901111504 21 78 0.0 0.0 0.00 0.00 0.00 93 1015.6
20260901110004 21 78 0.0 0.0 0.00 0.00 0.00 93 1015.6
20260901104504 21 78 0.0 0.0 0.00 0.00 0.00 93 1015.5
20260901103004 21 78 0.0 0.0 0.00 0.00 0.00 93 1015.4
20260901101504 21 78 0.0 0.0 0.00 0.00 0.00 93 1015.3
20260901100004 21 78 0.0 0.0 0.00 0.00 0.00 93 1015.2
20260901094504 21 78 0.0 0.0 0.00 0.00 0.00 93 1015.2
20260901093004 22 78 0.0 0.0 0.00 0.00 0.00 92 1015.1
20260901091504 22 78 0.0 0.0 0.00 0.00 0.00 93 1015.0
20260901083004 22 78 0.0 0.0 0.00 0.00 0.00 91 1014.8
20260901081504 22 78 0.0 0.0 0.00 0.00 0.00 91 1014.9
20260901080004 22 78 0.0 0.0 0.00 0.00 0.00 91 1014.8
20260901074504 22 78 0.0 0.0 0.00 0.00 0.00 91 1014.9
20260901073004 22 78 0.0 0.0 0.00 0.00 0.00 91 1014.8
20260901071504 23 78 0.0 0.0 0.00 0.00 0.00 91 1014.8
20260901070003 23 78 0.0 0.0 0.00 0.00 0.00 90 1014.9
20260901063004 23 78 0.0 0.0 0.00 0.00 0.00 90 1014.6
20260901061504 23 78 0.0 0.0 0.00 0.00 0.00 90 1014.5
20260901060004 23 78 0.0 0.0 0.00 0.00 0.00 89 1014.3
20260901054504 23 78 0.0 0.0 0.00 0.00 0.00 89 1014.5
20260901053004 23 78 0.0 0.0 0.00 0.00 0.00 89 1014.7
20260901050004 23 78 0.0 0.0 0.00 0.00 0.00 89 1014.6
20260901044506 23 78 0.0 0.0 0.00 0.00 0.00 90 1014.6
20260901041504 23 78 0.0 0.0 0.00 0.00 0.00 89 1015.2
20260901040005 23 78 0.0 0.0 0.00 0.00 0.00 89 1015.3
20260901034503 23 78 0.0 0.0 0.00 0.00 0.00 89 1015.4
20260901033005 23 78 0.0 0.0 0.00 0.00 0.00 89 1015.4
20260901030004 23 78 0.0 0.0 0.00 0.00 0.00 88 1015.6
20260901024504 23 78 0.0 0.0 0.00 0.00 0.00 88 1015.6
20260901023004 24 78 0.0 0.0 0.00 0.00 0.00 87 1015.6
20260901021504 24 78 0.0 0.0 0.00 0.00 0.00 87 1015.7
20260901020004 25 78 0.0 0.0 0.00 0.00 0.00 86 1015.7